BATSU-CS1 (IRAZU) (43468 NORAD) Tracking and Keplerian Element Data

This shows tracking and keplerian element data for the satellite.

Feedback or suggestion? Click here.




ElementValue
Catalog43468
NameBATSU-CS1 (IRAZU)
Epoch Orbit12973
Epoch Day322.4619943
Epoch Year2018
RAAN325.1765
Inclination51.6395
Eccentricity0.0001466
Argument of Perigee41.6816
Mean Anonmoly318.4289
Mean Motion15.60043598
Decay Rate0.00013934
L11 43468U 98067NR 18322.46199430 .00013934 00000-0 17472-3 0 9991
L22 43468 51.6395 325.1765 0001466 41.6816 318.4289 15.60043598129736

Live tracking and technical data element details for BATSU-CS1 (IRAZU) (NORAD 43468). BATSU-CS1 (IRAZU) can be tracked NOW for your location showing map with azimuth and elevation plus other details from your city location.

Track the satellite on the map from your city or location and see movement details for azimuth, elevation, latitude, longitude, range, height, and movement on the map or in text.







IsCatalogInMostPopularTable: catalog: 43468, numindb: 77
Update: records affected: 1



GetName: 43468 BATSU-CS1 (IRAZU)

Hit Count: updated at: Tue, 20 Nov 2018 07:18:30 GMT